アトラス彗星

C/2023 E1 ( ATLAS )

English version
Home page
Updated on October 24, 2023

---------------------------------------------------------------------

・ プロフィール

発見日 2023年3月1日
発見光度 18.8等
発見者 Asteroid Terrestrial-Impact Last Alert System (ATLAS) search program

・ 写真集

・ 軌道要素

Epoch 2023 Sept. 13.0 TT = JDT 2460200.5
T 2023 July 1.10941 TT                                  Rudenko
q   1.0266366            (2000.0)            P               Q
n   0.01158557     Peri.  105.89825     +0.06333690     +0.98427290
a  19.3430224      Node   164.57383     -0.97143038     +0.02293403
e   0.9469247      Incl.   38.31399     +0.22871699     -0.17515962
P  85.1
>From 2815 observations 2022 Dec. 25-2023 Sept. 24, mean residual 0".5.

・ 星図

・ 光度変化

        m1 = 10.0 + 5 logΔ + 21.0 log r          [ ,0]  (              〜2023年 7月 1日)
        m1 =  9.7 + 5 logΔ + 15.0 log r(t - 20)  [0, ]  (2023年 7月 1日〜              )

---------------------------------------------------------------------

軌道要素はM.P.E.C. 2023-S260に掲載されたものです。
星図はステラナビゲータ Ver.11 (アストロアーツ) で作成したものです。
光度グラフはComet for Windowsで作成したものです。

---------------------------------------------------------------------

Copyright(C) Seiichi Yoshida (comet@aerith.net). All rights reserved.